| time (UTC) | temp F | wind direction | speed MPH | gust MPH | rain 1hr in | rain 24hr in | rain mn in | humidity % | barometer mb |
| 20260507170058 | 45 | 160 | 0.0 | 5.0 | 0.01 | 0.47 | 0.47 | 98 | 1014.7 |
| 20260507165555 | 46 | 91 | 0.0 | 5.0 | 0.01 | 0.47 | 0.47 | 98 | 1014.7 |
| 20260507165055 | 46 | 90 | 1.0 | 6.0 | 0.01 | 0.47 | 0.47 | 98 | 1014.6 |
| 20260507164628 | 46 | 94 | 0.0 | 4.0 | 0.01 | 0.47 | 0.47 | 98 | 1014.6 |
| 20260507164054 | 46 | 11 | 1.0 | 4.0 | 0.00 | 0.46 | 0.46 | 98 | 1014.6 |
| 20260507163552 | 46 | 90 | 1.0 | 4.0 | 0.00 | 0.46 | 0.46 | 98 | 1014.5 |
| 20260507163055 | 46 | 71 | 0.0 | 4.0 | 0.00 | 0.46 | 0.46 | 98 | 1014.4 |
| 20260507162551 | 46 | 75 | 0.0 | 3.0 | 0.00 | 0.46 | 0.46 | 98 | 1014.5 |
| 20260507162052 | 46 | 63 | 0.0 | 6.0 | 0.00 | 0.46 | 0.46 | 98 | 1014.5 |
| 20260507161556 | 46 | 88 | 1.0 | 5.0 | 0.00 | 0.46 | 0.46 | 98 | 1014.5 |
| 20260507161051 | 46 | 71 | 0.0 | 8.0 | 0.00 | 0.46 | 0.46 | 98 | 1014.3 |
| 20260507160548 | 47 | 52 | 1.0 | 8.0 | 0.00 | 0.46 | 0.46 | 98 | 1014.3 |
| 20260507160048 | 47 | 70 | 1.0 | 5.0 | 0.00 | 0.46 | 0.46 | 98 | 1014.3 |
| 20260507155547 | 47 | 94 | 1.0 | 7.0 | 0.00 | 0.46 | 0.46 | 98 | 1014.3 |
| 20260507155048 | 47 | 5 | 1.0 | 7.0 | 0.00 | 0.46 | 0.46 | 98 | 1014.5 |
| 20260507154548 | 47 | 95 | 2.0 | 6.0 | 0.00 | 0.46 | 0.46 | 98 | 1014.4 |
| 20260507154046 | 47 | 71 | 0.0 | 6.0 | 0.00 | 0.46 | 0.46 | 98 | 1014.3 |
| 20260507153549 | 47 | 101 | 0.0 | 5.0 | 0.01 | 0.46 | 0.46 | 98 | 1014.3 |
| 20260507153046 | 47 | 52 | 0.0 | 5.0 | 0.01 | 0.46 | 0.46 | 98 | 1014.2 |
| 20260507152547 | 47 | 42 | 1.0 | 4.0 | 0.01 | 0.46 | 0.46 | 98 | 1014.0 |
| 20260507152044 | 47 | 71 | 0.0 | 4.0 | 0.02 | 0.46 | 0.46 | 98 | 1014.1 |
| 20260507151545 | 47 | 44 | 1.0 | 6.0 | 0.02 | 0.46 | 0.46 | 98 | 1013.9 |
| 20260507151047 | 47 | 90 | 1.0 | 6.0 | 0.02 | 0.46 | 0.46 | 98 | 1013.9 |
| 20260507150541 | 47 | 81 | 1.0 | 4.0 | 0.02 | 0.46 | 0.46 | 98 | 1013.8 |
| 20260507150045 | 47 | 42 | 1.0 | 4.0 | 0.02 | 0.46 | 0.46 | 98 | 1013.7 |
| 20260507145541 | 47 | 55 | 0.0 | 4.0 | 0.02 | 0.46 | 0.46 | 98 | 1013.7 |
| 20260507145041 | 47 | 57 | 1.0 | 4.0 | 0.02 | 0.46 | 0.46 | 98 | 1013.6 |
| 20260507144540 | 47 | 85 | 1.0 | 5.0 | 0.02 | 0.46 | 0.46 | 98 | 1013.6 |
| 20260507144039 | 47 | 24 | 1.0 | 5.0 | 0.02 | 0.46 | 0.46 | 98 | 1013.6 |
| 20260507143539 | 47 | 325 | 0.0 | 4.0 | 0.02 | 0.46 | 0.46 | 98 | 1013.4 |
| 20260507143041 | 47 | 349 | 1.0 | 5.0 | 0.02 | 0.46 | 0.46 | 98 | 1013.5 |
| 20260507142537 | 47 | 84 | 1.0 | 5.0 | 0.02 | 0.46 | 0.46 | 98 | 1013.5 |
| 20260507142037 | 47 | 64 | 1.0 | 3.0 | 0.01 | 0.45 | 0.45 | 98 | 1013.4 |
| 20260507141538 | 47 | 115 | 0.0 | 4.0 | 0.01 | 0.45 | 0.45 | 98 | 1013.5 |
| 20260507141040 | 47 | 86 | 1.0 | 4.0 | 0.01 | 0.45 | 0.45 | 98 | 1013.5 |
| 20260507140536 | 47 | 88 | 1.0 | 7.0 | 0.01 | 0.45 | 0.45 | 98 | 1013.4 |
| 20260507140041 | 47 | 103 | 1.0 | 7.0 | 0.00 | 0.44 | 0.44 | 98 | 1013.2 |
| 20260507135535 | 48 | 91 | 0.0 | 5.0 | 0.01 | 0.44 | 0.44 | 98 | 1013.4 |
| 20260507135035 | 48 | 5 | 1.0 | 5.0 | 0.01 | 0.44 | 0.44 | 98 | 1013.2 |
| 20260507134535 | 48 | 82 | 1.0 | 6.0 | 0.01 | 0.44 | 0.44 | 98 | 1013.2 |
| 20260507134034 | 48 | 53 | 2.0 | 6.0 | 0.01 | 0.44 | 0.44 | 98 | 1013.1 |
| 20260507133535 | 49 | 64 | 0.0 | 3.0 | 0.02 | 0.44 | 0.44 | 98 | 1013.0 |
| 20260507133035 | 48 | 64 | 0.0 | 4.0 | 0.02 | 0.44 | 0.44 | 98 | 1013.1 |
| 20260507132534 | 48 | 61 | 0.0 | 5.0 | 0.02 | 0.44 | 0.44 | 98 | 1013.1 |
| 20260507132033 | 48 | 79 | 2.0 | 5.0 | 0.02 | 0.44 | 0.44 | 98 | 1013.0 |
| 20260507131538 | 48 | 45 | 0.0 | 3.0 | 0.03 | 0.44 | 0.44 | 98 | 1013.1 |
| 20260507131033 | 48 | 76 | 1.0 | 5.0 | 0.03 | 0.44 | 0.44 | 98 | 1013.1 |
| 20260507130536 | 48 | 69 | 1.0 | 5.0 | 0.03 | 0.44 | 0.44 | 98 | 1013.1 |
| 20260507130038 | 48 | 34 | 1.0 | 4.0 | 0.03 | 0.44 | 0.44 | 98 | 1012.9 |
| 20260507125534 | 48 | 82 | 0.0 | 0.0 | 0.04 | 0.43 | 0.43 | 99 | 1013.0 |
| 20260507125030 | 48 | 342 | 0.0 | 3.0 | 0.04 | 0.43 | 0.43 | 98 | 1012.9 |
| 20260507124538 | 48 | 53 | 0.0 | 3.0 | 0.04 | 0.43 | 0.43 | 98 | 1012.8 |
| 20260507124030 | 48 | 85 | 0.0 | 3.0 | 0.04 | 0.43 | 0.43 | 98 | 1012.8 |
| 20260507123529 | 48 | 301 | 0.0 | 4.0 | 0.03 | 0.43 | 0.43 | 99 | 1012.7 |
| 20260507123029 | 48 | 296 | 1.0 | 4.0 | 0.03 | 0.43 | 0.43 | 98 | 1012.6 |
| 20260507122530 | 48 | 346 | 0.0 | 3.0 | 0.03 | 0.43 | 0.43 | 98 | 1012.6 |
| 20260507122026 | 48 | 42 | 0.0 | 5.0 | 0.02 | 0.42 | 0.42 | 98 | 1012.5 |
| 20260507121527 | 48 | 58 | 2.0 | 5.0 | 0.02 | 0.41 | 0.41 | 98 | 1012.5 |
| 20260507121026 | 48 | 67 | 2.0 | 4.0 | 0.02 | 0.41 | 0.41 | 99 | 1012.5 |
| 20260507120526 | 48 | 64 | 0.0 | 3.0 | 0.02 | 0.41 | 0.41 | 98 | 1012.4 |
| 20260507120026 | 48 | 67 | 1.0 | 3.0 | 0.01 | 0.40 | 0.40 | 98 | 1012.5 |
| 20260507115626 | 48 | 61 | 1.0 | 3.0 | 0.00 | 0.39 | 0.39 | 98 | 1012.4 |
| 20260507115024 | 48 | 66 | 1.0 | 5.0 | 0.00 | 0.39 | 0.39 | 98 | 1012.3 |
| 20260507114537 | 48 | 90 | 2.0 | 7.0 | 0.00 | 0.39 | 0.39 | 98 | 1012.2 |
| 20260507114024 | 48 | 59 | 1.0 | 7.0 | 0.00 | 0.39 | 0.39 | 98 | 1012.2 |
| 20260507113524 | 48 | 72 | 0.0 | 4.0 | 0.00 | 0.39 | 0.39 | 98 | 1012.3 |
| 20260507113039 | 49 | 78 | 0.0 | 3.0 | 0.00 | 0.39 | 0.39 | 99 | 1012.2 |
| 20260507112521 | 48 | 273 | 0.0 | 4.0 | 0.00 | 0.39 | 0.39 | 98 | 1012.1 |
| 20260507112021 | 48 | 61 | 1.0 | 4.0 | 0.00 | 0.39 | 0.39 | 98 | 1012.0 |
| 20260507111523 | 48 | 65 | 1.0 | 3.0 | 0.00 | 0.39 | 0.39 | 98 | 1012.0 |
| 20260507111019 | 48 | 79 | 1.0 | 4.0 | 0.00 | 0.39 | 0.39 | 98 | 1012.0 |
| 20260507110519 | 48 | 55 | 1.0 | 6.0 | 0.00 | 0.39 | 0.39 | 98 | 1012.0 |
| 20260507110019 | 49 | 5 | 1.0 | 6.0 | 0.00 | 0.39 | 0.39 | 98 | 1011.9 |
| 20260507105518 | 49 | 84 | 1.0 | 4.0 | 0.00 | 0.39 | 0.39 | 98 | 1011.9 |
| 20260507105018 | 48 | 52 | 1.0 | 4.0 | 0.00 | 0.39 | 0.39 | 98 | 1011.8 |
| 20260507104518 | 48 | 74 | 1.0 | 3.0 | 0.00 | 0.39 | 0.39 | 98 | 1011.7 |
| 20260507104017 | 49 | 90 | 1.0 | 8.0 | 0.00 | 0.39 | 0.39 | 98 | 1011.7 |
| 20260507103519 | 49 | 68 | 2.0 | 8.0 | 0.00 | 0.39 | 0.39 | 98 | 1011.7 |
| 20260507103020 | 49 | 343 | 0.0 | 5.0 | 0.00 | 0.39 | 0.39 | 98 | 1011.7 |
| 20260507102516 | 50 | 64 | 1.0 | 9.0 | 0.00 | 0.39 | 0.39 | 99 | 1011.7 |
| 20260507102015 | 50 | 36 | 2.0 | 9.0 | 0.01 | 0.39 | 0.39 | 99 | 1011.5 |
| 20260507101517 | 50 | 74 | 0.0 | 3.0 | 0.01 | 0.39 | 0.39 | 99 | 1011.5 |
| 20260507101018 | 50 | 60 | 0.0 | 3.0 | 0.01 | 0.39 | 0.39 | 99 | 1011.6 |
| 20260507100514 | 49 | 78 | 1.0 | 3.0 | 0.01 | 0.39 | 0.39 | 99 | 1011.6 |
| 20260507100014 | 49 | 81 | 0.0 | 3.0 | 0.01 | 0.39 | 0.39 | 99 | 1011.6 |
| 20260507095514 | 49 | 78 | 0.0 | 4.0 | 0.01 | 0.39 | 0.39 | 99 | 1011.5 |
| 20260507095014 | 49 | 73 | 0.0 | 4.0 | 0.01 | 0.39 | 0.39 | 99 | 1011.4 |
| 20260507094511 | 49 | 63 | 0.0 | 3.0 | 0.01 | 0.39 | 0.39 | 98 | 1011.4 |
| 20260507094011 | 48 | 57 | 0.0 | 3.0 | 0.01 | 0.39 | 0.39 | 98 | 1011.5 |
| 20260507093510 | 48 | 267 | 0.0 | 2.0 | 0.01 | 0.39 | 0.39 | 99 | 1011.3 |
| 20260507093010 | 48 | 267 | 0.0 | 2.0 | 0.01 | 0.39 | 0.39 | 99 | 1011.3 |
| 20260507092513 | 48 | 266 | 0.0 | 3.0 | 0.01 | 0.39 | 0.39 | 98 | 1011.2 |
| 20260507092010 | 49 | 67 | 0.0 | 3.0 | 0.00 | 0.39 | 0.39 | 98 | 1011.1 |
| 20260507091508 | 49 | 61 | 0.0 | 4.0 | 0.00 | 0.39 | 0.39 | 98 | 1011.1 |
| 20260507091007 | 49 | 29 | 1.0 | 6.0 | 0.00 | 0.39 | 0.39 | 98 | 1011.0 |
| 20260507090511 | 49 | 10 | 2.0 | 6.0 | 0.00 | 0.39 | 0.39 | 98 | 1010.9 |
| 20260507090006 | 49 | 79 | 0.0 | 3.0 | 0.00 | 0.39 | 0.39 | 99 | 1010.9 |
| 20260507085508 | 49 | 50 | 0.0 | 3.0 | 0.00 | 0.39 | 0.39 | 99 | 1010.8 |
| 20260507085006 | 49 | 74 | 1.0 | 4.0 | 0.00 | 0.39 | 0.39 | 99 | 1010.8 |
| 20260507084507 | 49 | 57 | 0.0 | 4.0 | 0.00 | 0.39 | 0.39 | 99 | 1010.7 |
| 20260507084004 | 49 | 63 | 0.0 | 0.0 | 0.00 | 0.39 | 0.39 | 99 | 1010.6 |
| 20260507083504 | 48 | 64 | 0.0 | 2.0 | 0.01 | 0.39 | 0.39 | 98 | 1010.6 |
| 20260507083004 | 48 | 65 | 0.0 | 4.0 | 0.01 | 0.39 | 0.39 | 99 | 1010.4 |
| 20260507082505 | 48 | 75 | 1.0 | 4.0 | 0.02 | 0.39 | 0.39 | 98 | 1010.5 |
| 20260507082002 | 49 | 84 | 0.0 | 3.0 | 0.02 | 0.39 | 0.39 | 98 | 1010.5 |
| 20260507081506 | 49 | 104 | 0.0 | 4.0 | 0.02 | 0.39 | 0.39 | 98 | 1010.4 |
| 20260507081001 | 49 | 59 | 1.0 | 4.0 | 0.03 | 0.39 | 0.39 | 99 | 1010.3 |
| 20260507080501 | 49 | 73 | 0.0 | 0.0 | 0.03 | 0.39 | 0.39 | 99 | 1010.3 |
| 20260507080001 | 49 | 54 | 0.0 | 3.0 | 0.04 | 0.39 | 0.39 | 99 | 1010.2 |
| 20260507075501 | 49 | 55 | 0.0 | 4.0 | 0.04 | 0.39 | 0.39 | 99 | 1010.3 |
| 20260507075100 | 49 | 53 | 0.0 | 4.0 | 0.05 | 0.39 | 0.39 | 99 | 1010.3 |
| 20260507074604 | 49 | 76 | 0.0 | 2.0 | 0.05 | 0.39 | 0.39 | 99 | 1010.1 |
| 20260507074101 | 48 | 62 | 1.0 | 2.0 | 0.05 | 0.39 | 0.39 | 99 | 1010.1 |
| 20260507073600 | 48 | 333 | 0.0 | 1.0 | 0.04 | 0.38 | 0.38 | 99 | 1010.1 |
| 20260507073102 | 48 | 332 | 0.0 | 3.0 | 0.05 | 0.38 | 0.38 | 99 | 1010.1 |
| 20260507072557 | 48 | 278 | 0.0 | 3.0 | 0.04 | 0.37 | 0.37 | 99 | 1010.0 |
| 20260507072056 | 48 | 52 | 0.0 | 1.0 | 0.03 | 0.36 | 0.36 | 99 | 1009.8 |
| 20260507071556 | 48 | 52 | 0.0 | 4.0 | 0.03 | 0.36 | 0.36 | 98 | 1009.8 |
| 20260507071056 | 48 | 51 | 0.0 | 4.0 | 0.02 | 0.35 | 0.35 | 98 | 1009.8 |
| 20260507070555 | 48 | 76 | 1.0 | 3.0 | 0.02 | 0.35 | 0.35 | 98 | 1009.9 |
| 20260507070057 | 48 | 90 | 1.0 | 4.0 | 0.02 | 0.35 | 0.35 | 98 | 1009.8 |
| 20260507065556 | 48 | 92 | 1.0 | 4.0 | 0.02 | 0.35 | 0.35 | 98 | 1009.7 |
| 20260507065053 | 48 | 71 | 0.0 | 4.0 | 0.01 | 0.34 | 0.34 | 98 | 1009.7 |
| 20260507064555 | 49 | 81 | 2.0 | 4.0 | 0.01 | 0.34 | 0.34 | 98 | 1009.7 |
| 20260507064053 | 49 | 76 | 0.0 | 4.0 | 0.02 | 0.34 | 0.34 | 99 | 1009.7 |
| 20260507063553 | 49 | 68 | 0.0 | 4.0 | 0.02 | 0.34 | 0.34 | 98 | 1009.6 |
| 20260507063053 | 49 | 268 | 0.0 | 3.0 | 0.01 | 0.33 | 0.33 | 98 | 1009.6 |
| 20260507062552 | 49 | 268 | 1.0 | 3.0 | 0.01 | 0.33 | 0.33 | 98 | 1009.6 |
| 20260507062051 | 49 | 268 | 0.0 | 4.0 | 0.01 | 0.33 | 0.33 | 98 | 1009.6 |
| 20260507061551 | 50 | 246 | 2.0 | 4.0 | 0.01 | 0.33 | 0.33 | 98 | 1009.4 |
| 20260507061052 | 50 | 159 | 0.0 | 0.0 | 0.01 | 0.33 | 0.33 | 99 | 1009.3 |
| 20260507060553 | 50 | 159 | 0.0 | 0.0 | 0.01 | 0.33 | 0.33 | 99 | 1009.2 |
| 20260507060057 | 50 | 82 | 0.0 | 0.0 | 0.01 | 0.33 | 0.33 | 99 | 1009.2 |
| 20260507055549 | 49 | 82 | 0.0 | 0.0 | 0.01 | 0.33 | 0.33 | 99 | 1009.2 |
| 20260507055047 | 49 | 82 | 0.0 | 1.0 | 0.01 | 0.33 | 0.33 | 99 | 1009.0 |
| 20260507054546 | 49 | 82 | 0.0 | 2.0 | 0.01 | 0.33 | 0.33 | 99 | 1009.1 |
| 20260507054047 | 48 | 83 | 0.0 | 2.0 | 0.00 | 0.32 | 0.32 | 98 | 1009.0 |
| 20260507053545 | 48 | 42 | 0.0 | 0.0 | 0.00 | 0.32 | 0.32 | 99 | 1009.0 |
| 20260507053046 | 49 | 39 | 0.0 | 0.0 | 0.00 | 0.32 | 0.32 | 99 | 1009.0 |
| 20260507052546 | 48 | 39 | 0.0 | 0.0 | 0.00 | 0.32 | 0.32 | 99 | 1009.0 |
| 20260507052043 | 48 | 39 | 0.0 | 0.0 | 0.00 | 0.32 | 0.32 | 99 | 1008.9 |
| 20260507051543 | 48 | 39 | 0.0 | 0.0 | 0.00 | 0.32 | 0.32 | 99 | 1008.9 |
| 20260507051041 | 48 | 38 | 0.0 | 0.0 | 0.00 | 0.32 | 0.32 | 99 | 1008.8 |
| 20260507050539 | 48 | 38 | 0.0 | 0.0 | 0.00 | 0.32 | 0.32 | 99 | 1008.6 |
| 20260507050042 | 48 | 38 | 0.0 | 0.0 | 0.00 | 0.32 | 0.32 | 99 | 1008.7 |
| 20260507045540 | 48 | 38 | 0.0 | 0.0 | 0.01 | 0.32 | 0.32 | 99 | 1008.6 |
| 20260507045037 | 48 | 39 | 0.0 | 0.0 | 0.01 | 0.32 | 0.32 | 99 | 1008.6 |
| 20260507044537 | 48 | 39 | 0.0 | 0.0 | 0.01 | 0.32 | 0.32 | 99 | 1008.7 |
| 20260507044035 | 47 | 39 | 0.0 | 0.0 | 0.01 | 0.32 | 0.32 | 99 | 1008.7 |
| 20260507043533 | 47 | 39 | 0.0 | 0.0 | 0.02 | 0.32 | 0.32 | 99 | 1008.5 |
| 20260507043035 | 47 | 39 | 0.0 | 0.0 | 0.02 | 0.32 | 0.32 | 99 | 1008.5 |
| 20260507042531 | 47 | 39 | 0.0 | 0.0 | 0.03 | 0.32 | 0.32 | 99 | 1008.4 |
| 20260507042029 | 47 | 355 | 0.0 | 0.0 | 0.04 | 0.32 | 0.32 | 98 | 1008.4 |
| 20260507041529 | 47 | 355 | 0.0 | 2.0 | 0.06 | 0.32 | 0.32 | 98 | 1008.3 |
| 20260507041029 | 47 | 355 | 0.0 | 2.0 | 0.06 | 0.32 | 0.32 | 98 | 1008.4 |
| 20260507040529 | 47 | 339 | 0.0 | 1.0 | 0.06 | 0.32 | 0.32 | 98 | 1008.3 |
| 20260507040028 | 47 | 313 | 0.0 | 2.0 | 0.05 | 0.31 | 0.31 | 98 | 1008.3 |
| 20260507035528 | 47 | 313 | 0.0 | 2.0 | 0.05 | 0.31 | 0.31 | 98 | 1008.3 |
| 20260507035028 | 47 | 313 | 0.0 | 0.0 | 0.06 | 0.31 | 0.31 | 99 | 1008.2 |
| 20260507034534 | 47 | 313 | 0.0 | 2.0 | 0.06 | 0.31 | 0.31 | 98 | 1008.3 |
| 20260507034027 | 47 | 313 | 0.0 | 2.0 | 0.06 | 0.31 | 0.31 | 98 | 1008.3 |
| 20260507033527 | 47 | 313 | 0.0 | 1.0 | 0.05 | 0.31 | 0.31 | 98 | 1008.4 |
| 20260507033026 | 47 | 313 | 0.0 | 2.0 | 0.05 | 0.30 | 0.30 | 98 | 1008.2 |
| 20260507032525 | 47 | 313 | 0.0 | 2.0 | 0.04 | 0.28 | 0.28 | 98 | 1008.1 |
| 20260507032025 | 47 | 313 | 0.0 | 2.0 | 0.03 | 0.28 | 0.28 | 98 | 1008.0 |
| 20260507031524 | 47 | 313 | 0.0 | 2.0 | 0.03 | 0.27 | 0.27 | 98 | 1007.9 |
| 20260507031025 | 47 | 313 | 0.0 | 1.0 | 0.03 | 0.27 | 0.27 | 98 | 1008.0 |
| 20260507030526 | 47 | 313 | 0.0 | 3.0 | 0.04 | 0.27 | 0.27 | 98 | 1007.9 |
| 20260507030024 | 47 | 313 | 0.0 | 3.0 | 0.05 | 0.27 | 0.27 | 98 | 1007.9 |
| 20260507025523 | 47 | 310 | 0.0 | 2.0 | 0.05 | 0.26 | 0.26 | 98 | 1007.8 |
| 20260507025023 | 47 | 310 | 0.0 | 2.0 | 0.05 | 0.26 | 0.26 | 98 | 1007.8 |
| 20260507024523 | 47 | 309 | 0.0 | 2.0 | 0.05 | 0.26 | 0.26 | 98 | 1007.8 |
| 20260507024022 | 47 | 306 | 0.0 | 3.0 | 0.05 | 0.26 | 0.26 | 98 | 1007.7 |
| 20260507023522 | 47 | 304 | 1.0 | 3.0 | 0.05 | 0.26 | 0.26 | 98 | 1007.6 |
| 20260507023021 | 47 | 5 | 0.0 | 3.0 | 0.04 | 0.25 | 0.25 | 98 | 1007.5 |
| 20260507022520 | 47 | 43 | 1.0 | 3.0 | 0.04 | 0.25 | 0.25 | 98 | 1007.6 |
| 20260507022021 | 47 | 227 | 0.0 | 4.0 | 0.03 | 0.24 | 0.24 | 98 | 1007.6 |
| 20260507021518 | 48 | 44 | 1.0 | 4.0 | 0.02 | 0.24 | 0.24 | 98 | 1007.6 |
| 20260507021018 | 48 | 10 | 1.0 | 3.0 | 0.02 | 0.23 | 0.23 | 98 | 1007.7 |
| 20260507020518 | 48 | 80 | 1.0 | 2.0 | 0.02 | 0.23 | 0.23 | 98 | 1007.7 |
| 20260507020027 | 48 | 291 | 0.0 | 2.0 | 0.01 | 0.22 | 0.22 | 98 | 1007.9 |
| 20260507015516 | 48 | 291 | 0.0 | 4.0 | 0.00 | 0.21 | 0.21 | 98 | 1007.8 |
| 20260507015016 | 48 | 91 | 0.0 | 4.0 | 0.00 | 0.21 | 0.21 | 97 | 1007.6 |
| 20260507014515 | 48 | 72 | 1.0 | 4.0 | 0.00 | 0.21 | 0.21 | 97 | 1007.6 |
| 20260507014015 | 48 | 355 | 1.0 | 5.0 | 0.00 | 0.21 | 0.21 | 98 | 1007.6 |
| 20260507013513 | 48 | 345 | 2.0 | 10.0 | 0.00 | 0.21 | 0.21 | 97 | 1007.5 |
| 20260507013018 | 48 | 76 | 1.0 | 10.0 | 0.01 | 0.21 | 0.21 | 97 | 1007.5 |
| 20260507012511 | 49 | 272 | 1.0 | 7.0 | 0.02 | 0.21 | 0.21 | 97 | 1007.5 |
| 20260507012010 | 49 | 42 | 0.0 | 8.0 | 0.03 | 0.21 | 0.21 | 97 | 1007.5 |
| 20260507011512 | 49 | 82 | 1.0 | 7.0 | 0.04 | 0.21 | 0.21 | 97 | 1007.5 |
| 20260507011008 | 50 | 76 | 0.0 | 6.0 | 0.06 | 0.21 | 0.21 | 98 | 1007.5 |
| 20260507010507 | 50 | 64 | 2.0 | 6.0 | 0.06 | 0.21 | 0.21 | 98 | 1007.4 |
| 20260507010007 | 50 | 107 | 0.0 | 3.0 | 0.08 | 0.21 | 0.21 | 98 | 1007.3 |
| 20260507005506 | 51 | 267 | 0.0 | 0.0 | 0.09 | 0.22 | 0.21 | 98 | 1007.5 |
| 20260507005006 | 50 | 267 | 0.0 | 0.0 | 0.10 | 0.22 | 0.21 | 98 | 1007.4 |
| 20260507004506 | 51 | 267 | 0.0 | 0.0 | 0.11 | 0.22 | 0.21 | 98 | 1007.3 |
| 20260507004005 | 51 | 267 | 0.0 | 2.0 | 0.12 | 0.22 | 0.21 | 98 | 1007.2 |
| 20260507003508 | 51 | 267 | 0.0 | 2.0 | 0.13 | 0.22 | 0.21 | 98 | 1007.2 |
| 20260507003006 | 51 | 267 | 0.0 | 2.0 | 0.13 | 0.21 | 0.20 | 98 | 1007.2 |
| 20260507002504 | 51 | 266 | 0.0 | 2.0 | 0.13 | 0.20 | 0.19 | 98 | 1007.3 |
| 20260507002003 | 51 | 266 | 0.0 | 2.0 | 0.13 | 0.19 | 0.18 | 98 | 1007.2 |
| 20260507001512 | 51 | 263 | 0.0 | 0.0 | 0.12 | 0.17 | 0.17 | 98 | 1007.1 |
| 20260507001003 | 51 | 263 | 0.0 | 2.0 | 0.11 | 0.17 | 0.16 | 97 | 1007.1 |
| 20260507000504 | 51 | 261 | 0.0 | 2.0 | 0.11 | 0.16 | 0.15 | 98 | 1006.9 |
| 20260507000002 | 51 | 229 | 0.0 | 0.0 | 0.10 | 0.14 | 0.13 | 98 | 1007.1 |
| 20260506235501 | 51 | 229 | 0.0 | 0.0 | 0.09 | 0.18 | 0.12 | 98 | 1007.1 |
| 20260506235100 | 51 | 229 | 0.0 | 0.0 | 0.08 | 0.17 | 0.11 | 98 | 1007.3 |
| 20260506234603 | 51 | 229 | 0.0 | 4.0 | 0.08 | 0.17 | 0.10 | 98 | 1007.2 |
| 20260506234100 | 52 | 229 | 0.0 | 4.0 | 0.08 | 0.16 | 0.09 | 98 | 1007.3 |
| 20260506233602 | 52 | 248 | 0.0 | 3.0 | 0.06 | 0.14 | 0.08 | 97 | 1007.2 |
| 20260506233101 | 52 | 248 | 0.0 | 3.0 | 0.06 | 0.13 | 0.07 | 97 | 1007.1 |
| 20260506232557 | 52 | 247 | 1.0 | 3.0 | 0.05 | 0.12 | 0.06 | 97 | 1007.1 |
| 20260506232058 | 52 | 178 | 0.0 | 3.0 | 0.04 | 0.11 | 0.05 | 97 | 1007.1 |
| 20260506231606 | 52 | 71 | 0.0 | 2.0 | 0.05 | 0.11 | 0.05 | 97 | 1007.0 |
| 20260506231057 | 52 | 63 | 0.0 | 3.0 | 0.05 | 0.11 | 0.05 | 97 | 1006.9 |
| 20260506230557 | 52 | 63 | 1.0 | 3.0 | 0.04 | 0.10 | 0.04 | 97 | 1006.8 |
| 20260506230112 | 52 | 94 | 1.0 | 5.0 | 0.03 | 0.09 | 0.03 | 97 | 1006.8 |
| 20260506225557 | 52 | 44 | 1.0 | 6.0 | 0.03 | 0.25 | 0.03 | 97 | 1006.7 |
| 20260506225055 | 52 | 325 | 2.0 | 10.0 | 0.02 | 0.24 | 0.02 | 96 | 1006.7 |
| 20260506224556 | 52 | 100 | 3.0 | 10.0 | 0.02 | 0.24 | 0.02 | 96 | 1006.7 |
| 20260506224055 | 52 | 69 | 2.0 | 6.0 | 0.02 | 0.24 | 0.02 | 96 | 1006.7 |
| 20260506223558 | 52 | 38 | 1.0 | 8.0 | 0.02 | 0.24 | 0.02 | 96 | 1006.7 |
| 20260506223054 | 52 | 58 | 3.0 | 9.0 | 0.02 | 0.24 | 0.02 | 96 | 1006.7 |
| 20260506222552 | 52 | 91 | 2.0 | 9.0 | 0.01 | 0.23 | 0.01 | 96 | 1006.7 |
| 20260506222054 | 52 | 65 | 2.0 | 6.0 | 0.01 | 0.23 | 0.01 | 96 | 1006.8 |
| 20260506221605 | 52 | 94 | 1.0 | 6.0 | 0.00 | 0.22 | 0.00 | 96 | 1006.8 |
| 20260506221050 | 52 | 101 | 2.0 | 11.0 | 0.00 | 0.22 | 0.00 | 96 | 1006.7 |
| 20260506220549 | 52 | 95 | 3.0 | 9.0 | 0.00 | 0.22 | 0.00 | 96 | 1006.8 |
| 20260506220049 | 52 | 87 | 2.0 | 9.0 | 0.00 | 0.22 | 0.00 | 96 | 1006.8 |
| 20260506215548 | 52 | 81 | 2.0 | 8.0 | 0.00 | 0.27 | 0.22 | 96 | 1006.7 |
| 20260506215051 | 53 | 104 | 4.0 | 8.0 | 0.00 | 0.27 | 0.22 | 96 | 1006.7 |
| 20260506214553 | 53 | 88 | 1.0 | 6.0 | 0.00 | 0.27 | 0.22 | 96 | 1006.7 |
| 20260506214046 | 53 | 96 | 2.0 | 10.0 | 0.00 | 0.27 | 0.22 | 95 | 1006.7 |
| 20260506213547 | 53 | 67 | 3.0 | 9.0 | 0.00 | 0.27 | 0.22 | 95 | 1006.7 |
| 20260506213047 | 53 | 68 | 2.0 | 7.0 | 0.00 | 0.27 | 0.22 | 95 | 1006.6 |
| 20260506212546 | 53 | 155 | 2.0 | 7.0 | 0.00 | 0.27 | 0.22 | 95 | 1006.6 |
| 20260506212046 | 53 | 87 | 2.0 | 7.0 | 0.00 | 0.27 | 0.22 | 95 | 1006.5 |
| 20260506211546 | 53 | 53 | 2.0 | 6.0 | 0.00 | 0.27 | 0.22 | 95 | 1006.5 |
| 20260506211048 | 53 | 44 | 2.0 | 8.0 | 0.00 | 0.27 | 0.22 | 95 | 1006.4 |
| 20260506210547 | 53 | 96 | 2.0 | 8.0 | 0.00 | 0.27 | 0.22 | 95 | 1006.5 |
| 20260506210054 | 53 | 333 | 2.0 | 9.0 | 0.00 | 0.27 | 0.22 | 95 | 1006.4 |
| 20260506205551 | 53 | 69 | 2.0 | 9.0 | 0.00 | 0.27 | 0.22 | 95 | 1006.4 |
| 20260506205045 | 53 | 80 | 1.0 | 8.0 | 0.00 | 0.27 | 0.22 | 95 | 1006.5 |
| 20260506204547 | 53 | 91 | 2.0 | 11.0 | 0.00 | 0.27 | 0.22 | 95 | 1006.3 |
| 20260506204044 | 53 | 73 | 3.0 | 11.0 | 0.00 | 0.27 | 0.22 | 94 | 1006.3 |
| 20260506203544 | 54 | 70 | 3.0 | 8.0 | 0.00 | 0.27 | 0.22 | 94 | 1006.2 |
| 20260506203045 | 54 | 342 | 1.0 | 8.0 | 0.00 | 0.27 | 0.22 | 94 | 1006.3 |
| 20260506202544 | 54 | 178 | 2.0 | 8.0 | 0.00 | 0.27 | 0.22 | 94 | 1006.3 |
| 20260506202044 | 54 | 32 | 3.0 | 8.0 | 0.00 | 0.27 | 0.22 | 94 | 1006.2 |
| 20260506201544 | 54 | 305 | 2.0 | 8.0 | 0.00 | 0.27 | 0.22 | 93 | 1006.2 |
| 20260506201047 | 54 | 68 | 3.0 | 10.0 | 0.00 | 0.27 | 0.22 | 93 | 1006.2 |
| 20260506200552 | 54 | 82 | 2.0 | 10.0 | 0.00 | 0.27 | 0.22 | 93 | 1006.1 |
| 20260506200043 | 54 | 91 | 3.0 | 10.0 | 0.00 | 0.27 | 0.22 | 92 | 1006.1 |
| 20260506195543 | 55 | 99 | 1.0 | 7.0 | 0.00 | 0.27 | 0.22 | 92 | 1006.2 |
| 20260506195043 | 55 | 78 | 2.0 | 7.0 | 0.00 | 0.27 | 0.22 | 92 | 1006.1 |
| 20260506194544 | 55 | 41 | 3.0 | 10.0 | 0.00 | 0.27 | 0.22 | 91 | 1006.2 |
| 20260506194042 | 55 | 5 | 2.0 | 10.0 | 0.00 | 0.27 | 0.22 | 91 | 1006.2 |
| 20260506193543 | 55 | 69 | 3.0 | 10.0 | 0.00 | 0.27 | 0.22 | 90 | 1006.3 |
| 20260506193046 | 55 | 87 | 2.0 | 5.0 | 0.00 | 0.27 | 0.22 | 90 | 1006.2 |
| 20260506192542 | 56 | 42 | 2.0 | 10.0 | 0.00 | 0.27 | 0.22 | 90 | 1006.3 |
| 20260506192042 | 56 | 80 | 2.0 | 10.0 | 0.00 | 0.27 | 0.22 | 89 | 1006.2 |
| 20260506191542 | 56 | 67 | 2.0 | 6.0 | 0.00 | 0.27 | 0.22 | 89 | 1006.2 |
| 20260506191042 | 56 | 79 | 2.0 | 5.0 | 0.00 | 0.27 | 0.22 | 88 | 1006.1 |
| 20260506190541 | 56 | 61 | 2.0 | 11.0 | 0.00 | 0.27 | 0.22 | 88 | 1006.1 |
| 20260506190043 | 56 | 116 | 2.0 | 11.0 | 0.00 | 0.27 | 0.22 | 87 | 1006.1 |
| 20260506185542 | 56 | 98 | 2.0 | 5.0 | 0.00 | 0.27 | 0.22 | 87 | 1005.9 |
| 20260506185041 | 57 | 86 | 2.0 | 6.0 | 0.00 | 0.27 | 0.22 | 86 | 1005.9 |
| 20260506184546 | 57 | 74 | 2.0 | 6.0 | 0.00 | 0.27 | 0.22 | 86 | 1005.9 |
| 20260506184142 | 57 | 84 | 1.0 | 6.0 | 0.00 | 0.27 | 0.22 | 86 | 1005.6 |
| 20260506183545 | 57 | 63 | 2.0 | 7.0 | 0.00 | 0.27 | 0.22 | 86 | 1005.7 |
| 20260506183044 | 57 | 88 | 2.0 | 5.0 | 0.00 | 0.27 | 0.22 | 86 | 1005.6 |
| 20260506182541 | 57 | 63 | 1.0 | 6.0 | 0.00 | 0.27 | 0.22 | 86 | 1005.6 |
| 20260506182042 | 57 | 76 | 1.0 | 4.0 | 0.00 | 0.27 | 0.22 | 87 | 1005.7 |
| 20260506181545 | 57 | 78 | 2.0 | 5.0 | 0.00 | 0.27 | 0.22 | 87 | 1005.8 |
| 20260506181039 | 57 | 48 | 1.0 | 5.0 | 0.00 | 0.27 | 0.22 | 87 | 1005.7 |
| 20260506180543 | 57 | 62 | 2.0 | 4.0 | 0.00 | 0.27 | 0.22 | 87 | 1005.8 |
| 20260506180039 | 57 | 76 | 0.0 | 6.0 | 0.00 | 0.27 | 0.22 | 87 | 1005.8 |
| 20260506175539 | 57 | 77 | 0.0 | 6.0 | 0.00 | 0.27 | 0.22 | 87 | 1005.8 |
| 20260506175042 | 58 | 61 | 0.0 | 3.0 | 0.00 | 0.27 | 0.22 | 86 | 1005.6 |
| 20260506174539 | 58 | 59 | 0.0 | 3.0 | 0.00 | 0.27 | 0.22 | 85 | 1005.5 |
| 20260506174039 | 58 | 119 | 0.0 | 0.0 | 0.00 | 0.27 | 0.22 | 85 | 1005.7 |
| 20260506173539 | 58 | 121 | 0.0 | 0.0 | 0.00 | 0.27 | 0.22 | 84 | 1005.7 |
| 20260506173044 | 59 | 126 | 0.0 | 0.0 | 0.00 | 0.27 | 0.22 | 83 | 1005.5 |
| 20260506172538 | 59 | 126 | 0.0 | 0.0 | 0.00 | 0.27 | 0.22 | 82 | 1005.5 |
| 20260506172037 | 59 | 128 | 0.0 | 0.0 | 0.00 | 0.27 | 0.22 | 81 | 1005.5 |
| 20260506171538 | 60 | 128 | 0.0 | 0.0 | 0.00 | 0.27 | 0.22 | 80 | 1005.4 |
| 20260506171038 | 60 | 128 | 0.0 | 0.0 | 0.00 | 0.27 | 0.22 | 79 | 1005.4 |
| 20260506170538 | 61 | 132 | 0.0 | 0.0 | 0.00 | 0.27 | 0.22 | 78 | 1005.5 |